When you browse on this site, cookies collect data to enhance your experience and personalize the content and advertising you see.
Visit our Privacy Policy to learn more. By continuing to use the site, you agree to this use of cookies and data.
  • In Hungary
  • List of Countries
  • For 7 days
  • Water Temperature
  • Weather Map
  • News
  • Weather Widgets
  • user-avatar
    Login

    Hourly Weather Grebnevo

    Today, 19 January, Sunday

    Time Temperature Precipitation Wind Pressure Humidity
    00:00 -4°C° 0 mm 4 mps 757 mmHg 94%
    01:00 -4°C° 0 mm 4 mps 757 mmHg 93%
    02:00 -4°C° 0 mm 4 mps 757 mmHg 93%
    03:00 -5°C° 0 mm 4 mps 757 mmHg 96%
    04:00 -5°C° 0 mm 4 mps 757 mmHg 95%
    05:00 -5°C° 0 mm 4 mps 756 mmHg 94%
    06:00 -7°C° 0 mm 4 mps 756 mmHg 93%
    07:00 -7°C° 0 mm 4 mps 757 mmHg 94%
    08:00 -5°C° 0 mm 3 mps 757 mmHg 94%
    09:00 -5°C° 0 mm 3 mps 757 mmHg 96%
    10:00 -5°C° 0 mm 3 mps 757 mmHg 94%
    11:00 -4°C° 0 mm 3 mps 757 mmHg 93%
    12:00 -2°C° 0 mm 3 mps 758 mmHg 91%
    13:00 -2°C° 0 mm 3 mps 758 mmHg 91%
    14:00 -2°C° 0 mm 3 mps 758 mmHg 90%
    15:00 -2°C° 0 mm 2 mps 758 mmHg 90%
    16:00 -2°C° 0 mm 2 mps 758 mmHg 91%
    17:00 -3°C° 0 mm 2 mps 758 mmHg 92%
    18:00 -3°C° 0 mm 2 mps 758 mmHg 94%
    19:00 -4°C° 0 mm 3 mps 758 mmHg 93%
    20:00 -4°C° 0 mm 3 mps 758 mmHg 93%
    21:00 -4°C° 0 mm 3 mps 758 mmHg 93%
    22:00 -3°C° 0 mm 4 mps 758 mmHg 93%
    23:00 -3°C° 0 mm 4 mps 758 mmHg 92%

    Tomorrow, 20 January, Monday

    Time Temperature Precipitation Wind Pressure Humidity
    00:00 -3°C° 0 mm 4 mps 758 mmHg 92%
    01:00 -3°C° 0 mm 4 mps 758 mmHg 92%
    02:00 -3°C° 0 mm 4 mps 758 mmHg 92%
    03:00 -2°C° 0 mm 4 mps 758 mmHg 92%
    04:00 -2°C° 0 mm 4 mps 758 mmHg 92%
    05:00 -2°C° 0 mm 4 mps 758 mmHg 91%
    06:00 -2°C° 0 mm 4 mps 757 mmHg 91%
    07:00 -2°C° 0 mm 4 mps 757 mmHg 91%
    08:00 -2°C° 0 mm 4 mps 758 mmHg 91%
    09:00 -2°C° 0 mm 5 mps 758 mmHg 90%
    10:00 -2°C° 0 mm 5 mps 757 mmHg 90%
    11:00 -2°C° 0 mm 5 mps 757 mmHg 90%
    12:00 -2°C° 0 mm 5 mps 757 mmHg 90%
    13:00 -1°C° 0 mm 5 mps 757 mmHg 90%
    14:00 -1°C° 0 mm 5 mps 757 mmHg 89%
    15:00 -2°C° 0 mm 6 mps 757 mmHg 89%
    16:00 -1°C° 0 mm 5 mps 756 mmHg 89%
    17:00 -1°C° 0 mm 5 mps 756 mmHg 90%
    18:00 -2°C° 0 mm 5 mps 756 mmHg 90%
    19:00 -2°C° 0 mm 5 mps 756 mmHg 91%
    20:00 -2°C° 0 mm 5 mps 755 mmHg 92%
    21:00 -2°C° 0 mm 5 mps 755 mmHg 94%
    22:00 -2°C° 0 mm 5 mps 755 mmHg 94%
    23:00 -2°C° 0 mm 5 mps 754 mmHg 95%

    Day after tomorrow, 21 January, Tuesday

    Time Temperature Precipitation Wind Pressure Humidity
    00:00 -2°C° 0 mm 5 mps 754 mmHg 96%
    01:00 -3°C° 0 mm 6 mps 754 mmHg 94%
    02:00 -3°C° 0 mm 6 mps 753 mmHg 93%
    03:00 -3°C° 0 mm 6 mps 753 mmHg 92%
    04:00 -3°C° 0 mm 6 mps 752 mmHg 91%
    05:00 -3°C° 0 mm 6 mps 751 mmHg 90%
    06:00 -4°C° 0 mm 6 mps 751 mmHg 88%
    07:00 -4°C° 0 mm 6 mps 750 mmHg 88%
    08:00 -4°C° 0 mm 6 mps 750 mmHg 88%
    09:00 -4°C° 0 mm 6 mps 749 mmHg 88%
    10:00 -4°C° 0.1 mm 6 mps 748 mmHg 89%
    11:00 -4°C° 0.1 mm 7 mps 747 mmHg 90%
    12:00 -3°C° 0.1 mm 7 mps 747 mmHg 91%
    13:00 -3°C° 0.4 mm 7 mps 746 mmHg 91%
    14:00 -2°C° 0.4 mm 7 mps 746 mmHg 91%
    15:00 -2°C° 0.4 mm 7 mps 746 mmHg 91%
    16:00 -1°C° 0 mm 7 mps 745 mmHg 92%
    17:00 -1°C° 0 mm 6 mps 744 mmHg 93%
    18:00 -1°C° 0 mm 6 mps 744 mmHg 94%
    19:00 -1°C° 0 mm 6 mps 743 mmHg 95%
    20:00 -1°C° 0 mm 6 mps 743 mmHg 95%
    21:00 -1°C° 0 mm 6 mps 742 mmHg 95%
    22:00 -1°C° 0.4 mm 6 mps 741 mmHg 95%
    23:00 -1°C° 0.4 mm 6 mps 740 mmHg 95%

    22 January, Wednesday

    Time Temperature Precipitation Wind Pressure Humidity
    00:00 0°C° 0.4 mm 7 mps 739 mmHg 95%
    01:00 0°C° 0.3 mm 7 mps 739 mmHg 95%
    02:00 0°C° 0.3 mm 8 mps 738 mmHg 94%
    03:00 +1°C° 0.3 mm 8 mps 738 mmHg 93%
    04:00 0°C° 0.2 mm 8 mps 738 mmHg 92%
    05:00 0°C° 0.2 mm 8 mps 738 mmHg 90%
    06:00 0°C° 0.2 mm 8 mps 738 mmHg 89%
    07:00 -1°C° 0 mm 7 mps 738 mmHg 86%
    08:00 -2°C° 0 mm 6 mps 739 mmHg 84%
    09:00 -2°C° 0 mm 5 mps 739 mmHg 81%
    10:00 -3°C° 0 mm 6 mps 739 mmHg 80%
    11:00 -3°C° 0 mm 6 mps 739 mmHg 78%
    12:00 -3°C° 0 mm 7 mps 739 mmHg 77%
    13:00 -3°C° 0 mm 6 mps 738 mmHg 78%
    14:00 -2°C° 0 mm 5 mps 738 mmHg 79%
    15:00 -2°C° 0 mm 5 mps 737 mmHg 79%
    16:00 -2°C° 0.1 mm 4 mps 737 mmHg 81%
    17:00 -3°C° 0.1 mm 4 mps 737 mmHg 83%
    18:00 -2°C° 0.1 mm 3 mps 737 mmHg 84%
    19:00 -3°C° 0 mm 4 mps 737 mmHg 85%
    20:00 -3°C° 0 mm 4 mps 737 mmHg 85%
    21:00 -3°C° 0 mm 4 mps 737 mmHg 86%
    22:00 -3°C° 0 mm 4 mps 737 mmHg 87%
    23:00 -3°C° 0 mm 4 mps 737 mmHg 88%

    23 January, Thursday

    Time Temperature Precipitation Wind Pressure Humidity
    00:00 -5°C° 0 mm 5 mps 737 mmHg 89%
    01:00 -5°C° 0 mm 5 mps 737 mmHg 88%
    02:00 -5°C° 0 mm 5 mps 737 mmHg 88%
    03:00 -5°C° 0 mm 5 mps 738 mmHg 87%
    04:00 -5°C° 0 mm 5 mps 738 mmHg 86%
    05:00 -6°C° 0 mm 5 mps 738 mmHg 85%
    06:00 -6°C° 0 mm 5 mps 738 mmHg 84%
    07:00 -6°C° 0.1 mm 5 mps 739 mmHg 84%
    08:00 -6°C° 0.1 mm 5 mps 739 mmHg 84%
    09:00 -6°C° 0.1 mm 6 mps 740 mmHg 83%
    10:00 -6°C° 0.2 mm 6 mps 741 mmHg 79%
    11:00 -8°C° 0.2 mm 7 mps 741 mmHg 74%
    12:00 -8°C° 0.2 mm 8 mps 742 mmHg 69%
    13:00 -8°C° 0 mm 8 mps 743 mmHg 67%
    14:00 -9°C° 0 mm 7 mps 743 mmHg 64%
    15:00 -9°C° 0 mm 7 mps 744 mmHg 62%
    16:00 -9°C° 0 mm 6 mps 744 mmHg 67%
    17:00 -8°C° 0 mm 5 mps 745 mmHg 72%
    18:00 -8°C° 0 mm 4 mps 745 mmHg 77%
    19:00 -9°C° 0.1 mm 4 mps 746 mmHg 74%
    20:00 -9°C° 0.1 mm 4 mps 746 mmHg 72%
    21:00 -10°C° 0.1 mm 5 mps 746 mmHg 69%
    22:00 -9°C° 0 mm 4 mps 747 mmHg 70%
    23:00 -9°C° 0 mm 4 mps 747 mmHg 72%

    24 January, Friday

    Time Temperature Precipitation Wind Pressure Humidity
    00:00 -9°C° 0 mm 3 mps 747 mmHg 73%
    01:00 -9°C° 0 mm 3 mps 748 mmHg 74%
    02:00 -9°C° 0 mm 3 mps 748 mmHg 76%
    03:00 -9°C° 0 mm 3 mps 748 mmHg 77%
    04:00 -9°C° 0 mm 3 mps 748 mmHg 79%
    05:00 -9°C° 0 mm 3 mps 747 mmHg 81%
    06:00 -9°C° 0 mm 3 mps 747 mmHg 82%
    07:00 -9°C° 0 mm 4 mps 747 mmHg 83%
    08:00 -9°C° 0 mm 4 mps 746 mmHg 85%
    09:00 -10°C° 0 mm 5 mps 745 mmHg 86%
    10:00 -9°C° 0.2 mm 6 mps 744 mmHg 88%
    11:00 -8°C° 0.2 mm 6 mps 743 mmHg 90%
    12:00 -8°C° 0.2 mm 7 mps 743 mmHg 93%
    13:00 -7°C° 0.4 mm 7 mps 741 mmHg 93%
    14:00 -7°C° 0.4 mm 7 mps 740 mmHg 93%
    15:00 -6°C° 0.4 mm 7 mps 739 mmHg 94%
    16:00 -6°C° 0.3 mm 7 mps 739 mmHg 95%
    17:00 -4°C° 0.3 mm 6 mps 738 mmHg 95%
    18:00 -4°C° 0.3 mm 6 mps 738 mmHg 96%
    19:00 -2°C° 0.3 mm 5 mps 738 mmHg 96%
    20:00 -2°C° 0.3 mm 5 mps 738 mmHg 97%
    21:00 -1°C° 0.3 mm 5 mps 738 mmHg 97%
    22:00 -1°C° 0.1 mm 5 mps 738 mmHg 95%
    23:00 -3°C° 0.1 mm 6 mps 738 mmHg 93%
    Show more